Orbital Elements at Epoch 2459000.5 (2020-May-31.0) TDB
Reference: JPL 18 (heliocentric ecliptic J2000)
Element | Value | Uncertainty (1-sigma) | Units |
e | .07308681366822009 | 4.0804e-08 | |
a | 2.377864491274995 | 1.182e-08 | au |
q | 2.204073952272902 | 9.7505e-08 | au |
i | 5.989583296260054 | 4.5683e-06 | deg |
node | 311.0588381470252 | 4.1675e-05 | deg |
peri | 267.2220240595218 | 5.4535e-05 | deg |
M | 356.4527465161785 | 3.3073e-05 | deg |
tp | 2459013.696805089131 (2020-Jun-13.19680509) | 0.00012301 | TDB |
period | 1339.303732804842 3.67 | 9.9861e-06 2.734e-08 | d yr |
n | .2687963836597906 | 2.0042e-09 | deg/d |
Q | 2.551655030277087 | 1.2684e-08 | au |
|
| | Orbit Determination Parameters
Additional Information
|